Winchester, VA

2:11 AM EDT on June 23, 2017 (GMT -0400)
Winchester Regional

Weather History for KOKV - June, 2013

Change the Weather History Date:

Friday, June 14, 2013

  Actual Average Record
Temperature  
Mean Temperature 68 °F -  
Max Temperature 77 °F 79 °F 94 °F (1984)
Min Temperature 59 °F 60 °F 42 °F (1986)
Cooling Degree Days 3    
Growing Degree Days 18 (Base 50)    
Moisture  
Dew Point 54 °F    
Average Humidity 64    
Maximum Humidity 82    
Minimum Humidity 44    
Precipitation  
Precipitation 0.00 in - - ()
Sea Level Pressure  
Sea Level Pressure 29.87 in    
Wind  
Wind Speed 12 mph (NW)    
Max Wind Speed 17 mph    
Max Gust Speed 28 mph    
Visibility 10 miles    
Events      
Averages and records for this station are not official NWS values.
T = Trace of Precipitation, MM = Missing Value Source: NWS Daily Summary

Daily Weather History Graph

Daily Weather History Graph

Search for Another Location

Airport or City:

Trip Planner

Search our weather history database for the weather conditions in past years. The results will help you decide how hot, cold, wet, or windy it might be!

Date:

Astronomy

Jun. 14, 2013 Rise Set
Actual Time 5:45 AM EDT 8:40 PM EDT
Civil Twilight 5:13 AM EDT 9:12 PM EDT
Nautical Twilight 4:33 AM EDT 9:52 PM EDT
Astronomical Twilight 3:46 AM EDT 10:39 PM EDT
Moon 11:16 AM EDT (6/14) No Moon Set
Length of Visible Light 15h 58m
Length of Day
14h 54m
Waxing Crescent, 30% of the Moon is Illuminated
Jun 14
Waxing Crescent
Jun 16
First Quarter
Jun 23
Full
Jun 30
Last Quarter
Jul 8
New

Hourly Weather History & Observations

Time (EDT) Temp. Dew Point Humidity Pressure Visibility Wind Dir Wind Speed Gust Speed Precip Events Conditions
12:15 AM 64.4 °F 55.4 °F 73% 29.67 in 10.0 mi NW 17.3 mph 24.2 mph N/A   Mostly Cloudy
12:35 AM 64.4 °F 53.6 °F 68% 29.69 in 10.0 mi NW 15.0 mph 27.6 mph N/A   Mostly Cloudy
12:55 AM 64.4 °F 53.6 °F 68% 29.70 in 10.0 mi NNW 9.2 mph - N/A   Overcast
1:15 AM 64.4 °F 53.6 °F 68% 29.70 in 10.0 mi NW 15.0 mph 20.7 mph N/A   Overcast
1:35 AM 64.4 °F 53.6 °F 68% 29.70 in 10.0 mi NW 16.1 mph 23.0 mph N/A   Overcast
1:55 AM 64.4 °F 53.6 °F 68% 29.70 in 10.0 mi NW 11.5 mph 18.4 mph N/A   Unknown
2:15 AM 62.6 °F 53.6 °F 72% 29.70 in 10.0 mi NW 13.8 mph 20.7 mph N/A   Overcast
2:35 AM 62.6 °F 53.6 °F 72% 29.71 in 10.0 mi NW 12.7 mph - N/A   Unknown
2:55 AM 62.6 °F 53.6 °F 72% 29.72 in 10.0 mi NW 15.0 mph - N/A   Unknown
3:15 AM 62.6 °F 53.6 °F 72% 29.73 in 10.0 mi NW 13.8 mph 17.3 mph N/A   Unknown
3:35 AM 62.6 °F 53.6 °F 72% 29.74 in 10.0 mi NW 17.3 mph 23.0 mph N/A   Unknown
3:55 AM 62.6 °F 53.6 °F 72% 29.75 in 10.0 mi NW 15.0 mph 23.0 mph N/A   Unknown
4:15 AM 62.6 °F 53.6 °F 72% 29.76 in 10.0 mi NW 12.7 mph 19.6 mph N/A   Unknown
4:35 AM 60.8 °F 53.6 °F 77% 29.76 in 10.0 mi NW 11.5 mph - N/A   Unknown
4:55 AM 60.8 °F 53.6 °F 77% 29.77 in 10.0 mi NW 16.1 mph 19.6 mph N/A   Overcast
5:15 AM 60.8 °F 51.8 °F 72% 29.77 in 10.0 mi NW 15.0 mph 21.9 mph N/A   Overcast
5:35 AM 60.8 °F 51.8 °F 72% 29.79 in 10.0 mi NW 11.5 mph 16.1 mph N/A   Overcast
5:55 AM 60.8 °F 51.8 °F 72% 29.79 in 10.0 mi NW 13.8 mph 18.4 mph N/A   Overcast
6:15 AM 60.8 °F 51.8 °F 72% 29.80 in 10.0 mi NW 17.3 mph - N/A   Overcast
6:35 AM 59.0 °F 51.8 °F 77% 29.81 in 10.0 mi NW 12.7 mph 20.7 mph N/A   Scattered Clouds
6:55 AM 60.8 °F 51.8 °F 72% 29.82 in 10.0 mi NW 12.7 mph 17.3 mph N/A   Scattered Clouds
7:15 AM 60.8 °F 51.8 °F 72% 29.82 in 10.0 mi NW 16.1 mph - N/A   Scattered Clouds
7:35 AM 60.8 °F 53.6 °F 77% 29.83 in 10.0 mi NW 13.8 mph 18.4 mph N/A   Clear
7:55 AM 60.8 °F 53.6 °F 77% 29.84 in 10.0 mi NNW 13.8 mph 18.4 mph N/A   Clear
8:15 AM 62.6 °F 53.6 °F 72% 29.85 in 10.0 mi NW 12.7 mph 19.6 mph N/A   Clear
8:35 AM 62.6 °F 53.6 °F 72% 29.86 in 10.0 mi NNW 11.5 mph 18.4 mph N/A   Unknown
8:55 AM 64.4 °F 53.6 °F 68% 29.87 in 10.0 mi NNW 10.4 mph 20.7 mph N/A   Unknown
9:15 AM 64.4 °F 53.6 °F 68% 29.88 in 10.0 mi NNW 10.4 mph 18.4 mph N/A   Unknown
9:35 AM 66.2 °F 55.4 °F 68% 29.88 in 10.0 mi NNW 8.1 mph - N/A   Scattered Clouds
9:55 AM 68.0 °F 53.6 °F 60% 29.89 in 10.0 mi NNW 10.4 mph 16.1 mph N/A   Scattered Clouds
10:15 AM 64.4 °F 53.6 °F 68% 29.90 in 10.0 mi North 10.4 mph 17.3 mph N/A   Scattered Clouds
10:35 AM 68.0 °F 53.6 °F 60% 29.91 in 10.0 mi North 8.1 mph - N/A   Scattered Clouds
10:55 AM 68.0 °F 53.6 °F 60% 29.91 in 10.0 mi North 6.9 mph - N/A   Scattered Clouds
11:15 AM 68.0 °F 53.6 °F 60% 29.92 in 10.0 mi NNW 8.1 mph 16.1 mph N/A   Mostly Cloudy
11:35 AM 68.0 °F 55.4 °F 64% 29.92 in 10.0 mi NW 9.2 mph - N/A   Mostly Cloudy
11:55 AM 69.8 °F 55.4 °F 60% 29.92 in 10.0 mi NNE 5.8 mph - N/A   Mostly Cloudy
12:15 PM 69.8 °F 55.4 °F 60% 29.92 in 10.0 mi NNW 8.1 mph 16.1 mph N/A   Mostly Cloudy
12:35 PM 71.6 °F 57.2 °F 60% 29.92 in 10.0 mi NW 10.4 mph - N/A   Scattered Clouds
12:55 PM 71.6 °F 55.4 °F 57% 29.92 in 10.0 mi WNW 10.4 mph 16.1 mph N/A   Scattered Clouds
1:15 PM 71.6 °F 55.4 °F 57% 29.93 in 10.0 mi NNW 11.5 mph - N/A   Scattered Clouds
1:35 PM 71.6 °F 55.4 °F 57% 29.92 in 10.0 mi NNW 9.2 mph - N/A   Scattered Clouds
1:55 PM 73.4 °F 55.4 °F 53% 29.92 in 10.0 mi NNW 6.9 mph 16.1 mph N/A   Scattered Clouds
2:15 PM 73.4 °F 55.4 °F 53% 29.92 in 10.0 mi NW 9.2 mph 18.4 mph N/A   Scattered Clouds
2:35 PM 75.2 °F 55.4 °F 50% 29.92 in 10.0 mi NW 15.0 mph 19.6 mph N/A   Scattered Clouds
2:55 PM 73.4 °F 55.4 °F 53% 29.92 in 10.0 mi NW 6.9 mph - N/A   Scattered Clouds
3:15 PM 75.2 °F 55.4 °F 50% 29.92 in 10.0 mi NW 12.7 mph 16.1 mph N/A   Scattered Clouds
3:35 PM 73.4 °F 53.6 °F 50% 29.92 in 10.0 mi North 5.8 mph - N/A   Scattered Clouds
3:55 PM 77.0 °F 53.6 °F 44% 29.92 in 10.0 mi NNW 6.9 mph - N/A   Mostly Cloudy
4:15 PM 77.0 °F 53.6 °F 44% 29.91 in 10.0 mi NNW 9.2 mph 17.3 mph N/A   Mostly Cloudy
4:35 PM 77.0 °F 55.4 °F 47% 29.91 in 10.0 mi WNW 10.4 mph 17.3 mph N/A   Scattered Clouds
4:55 PM 77.0 °F 53.6 °F 44% 29.92 in 10.0 mi NNW 8.1 mph - N/A   Scattered Clouds
5:15 PM 75.2 °F 53.6 °F 47% 29.92 in 10.0 mi NW 8.1 mph 12.7 mph N/A   Scattered Clouds
5:35 PM 77.0 °F 53.6 °F 44% 29.92 in 10.0 mi NNW 8.1 mph - N/A   Mostly Cloudy
5:55 PM 77.0 °F 53.6 °F 44% 29.92 in 10.0 mi North 5.8 mph - N/A   Scattered Clouds
6:15 PM 75.2 °F 55.4 °F 50% 29.92 in 10.0 mi NW 6.9 mph - N/A   Mostly Cloudy
6:35 PM 75.2 °F 53.6 °F 47% 29.92 in 10.0 mi NW 9.2 mph - N/A   Mostly Cloudy
6:55 PM 73.4 °F 53.6 °F 50% 29.93 in 10.0 mi NNW 4.6 mph - N/A   Mostly Cloudy
7:15 PM 73.4 °F 53.6 °F 50% 29.93 in 10.0 mi NW 10.4 mph - N/A   Overcast
7:35 PM 73.4 °F 53.6 °F 50% 29.95 in 10.0 mi NNW 4.6 mph - N/A   Scattered Clouds
7:55 PM 71.6 °F 53.6 °F 53% 29.95 in 10.0 mi NNW 4.6 mph - N/A   Clear
8:15 PM 71.6 °F 55.4 °F 57% 29.95 in 10.0 mi NNW 4.6 mph - N/A   Clear
8:35 PM 68.0 °F 55.4 °F 64% 29.96 in 10.0 mi NNW 3.5 mph - N/A   Scattered Clouds
8:55 PM 64.4 °F 57.2 °F 77% 29.96 in 10.0 mi Calm Calm - N/A   Scattered Clouds
9:15 PM 64.4 °F 55.4 °F 73% 29.97 in 10.0 mi WNW 3.5 mph - N/A   Scattered Clouds
9:35 PM 64.4 °F 55.4 °F 73% 29.97 in 10.0 mi NW 4.6 mph - N/A   Scattered Clouds
9:55 PM 64.4 °F 55.4 °F 73% 29.99 in 10.0 mi NW 4.6 mph - N/A   Unknown
10:15 PM 62.6 °F 55.4 °F 77% 30.00 in 10.0 mi Calm Calm - N/A   Unknown
10:35 PM 62.6 °F 55.4 °F 77% 30.00 in 10.0 mi WNW 4.6 mph - N/A   Scattered Clouds
10:55 PM 62.6 °F 55.4 °F 77% 30.01 in 10.0 mi WNW 8.1 mph - N/A   Clear
11:15 PM 62.6 °F 55.4 °F 77% 30.01 in 10.0 mi WNW 5.8 mph - N/A   Clear
11:35 PM 60.8 °F 55.4 °F 82% 30.02 in 10.0 mi WNW 6.9 mph - N/A   Clear
11:55 PM 62.6 °F 55.4 °F 77% 30.02 in 10.0 mi West 6.9 mph - N/A   Mostly Cloudy